Orbital elements:
2024 GP1                                                 Earth MOID = 0.0535 AU
Epoch 2024 Mar. 31.0 TT = JDT 2460400.5                 Veres                   
M  44.10917              (2000.0)            P               Q                  
n   0.74407172     Peri.   84.69808     -0.41361462     -0.90144317             
a   1.2061265      Node    30.75444     +0.70457560     -0.40579387             
e   0.2935677      Incl.   14.46851     +0.57662481     -0.15076981             
P   1.32           H   22.85          G   0.15           U   7                  
Residuals in seconds of arc
240407 W16  0.0   0.3+    240407 958  0.5+  0.3+    240408 H21  0.1+  0.0
240407 W16  0.2-  0.2+    240407 Z80  0.8+  0.8+    240408 L76  0.7+  1.1+
240407 W16  0.2-  0.1-    240407 Z80  0.9-  0.9+    240408 L76  0.0   0.2+
240407 W16  0.2-  0.5-    240407 L01  0.0   0.1+    240408 L76  0.1+  0.1-
240407 W16  0.1-  0.1-    240407 L01  0.1+  0.1+    240408 G15  0.8+  0.6-
240407 W16  0.3-  0.3-    240407 L01  0.0   0.2-    240408 G15  0.7+  0.4-
240407 I52  0.3+  0.2+    240407 L01  0.0   0.2-    240408 104  0.1-  0.0
240407 I52  0.1+  0.0     240407 L01  0.1+  0.3+    240408 033  0.7+  0.5+
240407 I52  0.0   0.1-    240407 C40  0.8+  0.1+    240408 033  0.0   0.7+
240407 I52  0.1-  0.0     240407 C40  0.1-  0.2+    240408 033  0.1+  0.4+
240407 Q06  0.4+  0.5+    240407 C40  0.1+  0.0     240408 033  0.2-  0.1+
240407 Q06  0.6-  0.0     240407 C40  0.1-  0.7+    240408 033  0.1-  0.2-
240407 Q06  0.9-  1.3-    240407 C40  0.7+  0.5+    240408 033  0.4-  0.4-
240407 L18  0.5-  0.4+    240407 C40  0.1+  0.3+    240408 104  0.1-  0.4+
240407 L18  0.8-  0.1+    240407 C40  0.2+  0.4-    240408 104  0.1+  0.5+
240407 L18  0.9+  0.3-    240407 C40  0.5-  0.3-    240408 C40 (0.7+  0.9+)
240407 G02  0.2-  0.1-    240407 C40  0.6-  0.6-    240408 C40  0.2-  0.1-
240407 G02  0.3-  0.1-    240408 C40  0.5+  0.5-    240408 C40  0.3-  0.2-
240407 G02  0.3-  0.5+    240408 C40  0.3-  0.7-    240408 D63  0.3+  0.4+
240407 I93  0.1-  0.5-    240408 C40  0.7+  0.6-    240408 D63  0.8+  0.4+
240407 I93  0.3+  0.0     240408 H21  0.0   0.1-    240408 D63  0.7+  0.2+
240407 I93  0.2+  0.6+    240408 H21  0.0   0.0     240409 Q06  0.5+  0.0
240407 958  0.9+  0.4+    240408 H21  0.1+  0.2+    240409 Q06  0.5+  1.2+
240407 958  0.9+  0.4-    240408 H21  0.0   0.0     240409 Q06  0.8+  0.6+

Ephemeris:
2024 GP1                 a,e,i = 1.21, 0.29, 14                  q = 0.8520
Date    TT    R. A. (2000) Decl.     Delta      r    Elong.  Phase     V
2024 03 10    21 53 16.2 +58 28 24   0.1813  0.9313    65.0   104.8    22.9
...
2024 03 25    18 53 52.1 +67 59 16   0.1139  0.9935    84.9    88.6    21.2
...
2024 04 02    15 31 43.3 +59 21 52   0.08847 1.0301   107.9    67.5    20.0
...
2024 04 08    13 58 07.5 +39 39 38   0.08314 1.0584   131.7    44.9    19.3
2024 04 09    13 47 54.7 +35 53 15   0.08384 1.0632   135.7    41.1    19.2
2024 04 10    13 38 48.5 +32 07 40   0.08503 1.0680   139.5    37.5    19.2
...
2024 04 16    13 01 02.1 +12 07 19   0.1012  1.0968   156.0    21.8    19.1
...
2024 04 24    12 36 18.9 -04 47 22   0.1400  1.1352   156.2    20.9    19.9
...
2024 05 09    12 22 49.9 -18 42 51   0.2385  1.2058   141.7    31.3    21.5

M. P. C. Staff               (C) Copyright 2024 MPC           M.P.E.C. 2024-G108





More information about the Iaude mailing list